| time (UTC) | temp F | wind direction | speed knots | gust knots | rain 1hr in | rain 24hr in | rain mn in | humidity % | barometer mb |
| 20260507193532 | 59 | 232 | 6.1 | 13.0 | 0.00 | 0.05 | 0.00 | 35 | 1017.1 |
| 20260507193044 | 59 | 221 | 7.0 | 13.9 | 0.00 | 0.05 | 0.00 | 40 | 1017.2 |
| 20260507192530 | 59 | 255 | 7.8 | 13.9 | 0.00 | 0.05 | 0.00 | 38 | 1017.3 |
| 20260507192034 | 59 | 268 | 7.8 | 11.3 | 0.00 | 0.05 | 0.00 | 41 | 1017.4 |
| 20260507191552 | 59 | 252 | 7.8 | 14.8 | 0.00 | 0.05 | 0.00 | 40 | 1017.5 |
| 20260507191032 | 59 | 229 | 7.0 | 14.8 | 0.00 | 0.05 | 0.00 | 38 | 1017.5 |
| 20260507190535 | 58 | 240 | 7.0 | 16.5 | 0.00 | 0.05 | 0.00 | 38 | 1017.6 |
| 20260507190047 | 58 | 237 | 12.2 | 16.5 | 0.00 | 0.05 | 0.00 | 41 | 1017.7 |
| 20260507185532 | 58 | 256 | 7.8 | 13.0 | 0.00 | 0.16 | 0.00 | 43 | 1017.7 |
| 20260507185033 | 58 | 286 | 8.7 | 13.0 | 0.00 | 0.16 | 0.00 | 41 | 1017.8 |
| 20260507184547 | 58 | 257 | 7.8 | 12.2 | 0.00 | 0.16 | 0.00 | 43 | 1017.9 |
| 20260507184033 | 57 | 251 | 7.8 | 12.2 | 0.00 | 0.16 | 0.00 | 41 | 1017.8 |
| 20260507183533 | 57 | 261 | 7.0 | 10.4 | 0.00 | 0.16 | 0.00 | 42 | 1018.0 |
| 20260507183045 | 57 | 246 | 3.5 | 9.6 | 0.00 | 0.16 | 0.00 | 39 | 1018.0 |
| 20260507182533 | 57 | 258 | 6.1 | 12.2 | 0.00 | 0.16 | 0.00 | 39 | 1018.0 |
| 20260507182033 | 57 | 273 | 6.1 | 12.2 | 0.00 | 0.16 | 0.00 | 39 | 1017.9 |
| 20260507181546 | 56 | 261 | 7.0 | 9.6 | 0.00 | 0.16 | 0.00 | 39 | 1017.9 |
| 20260507181033 | 56 | 247 | 7.0 | 9.6 | 0.00 | 0.16 | 0.00 | 40 | 1017.9 |
| 20260507180533 | 56 | 253 | 7.8 | 9.6 | 0.00 | 0.16 | 0.00 | 44 | 1018.0 |
| 20260507180054 | 55 | 271 | 6.1 | 9.6 | 0.00 | 0.16 | 0.00 | 43 | 1018.0 |
| 20260507175534 | 55 | 254 | 6.1 | 8.7 | 0.00 | 0.17 | 0.00 | 41 | 1018.0 |
| 20260507175032 | 55 | 244 | 5.2 | 11.3 | 0.00 | 0.17 | 0.00 | 47 | 1018.0 |
| 20260507174550 | 54 | 214 | 6.1 | 12.2 | 0.00 | 0.17 | 0.00 | 46 | 1018.1 |
| 20260507174032 | 54 | 236 | 7.8 | 12.2 | 0.00 | 0.17 | 0.00 | 45 | 1018.2 |
| 20260507173532 | 53 | 261 | 8.7 | 12.2 | 0.00 | 0.17 | 0.00 | 44 | 1018.2 |
| 20260507173047 | 53 | 238 | 7.0 | 10.4 | 0.00 | 0.17 | 0.00 | 45 | 1018.3 |
| 20260507172532 | 52 | 248 | 6.1 | 11.3 | 0.00 | 0.17 | 0.00 | 46 | 1018.3 |
| 20260507172031 | 52 | 270 | 7.0 | 11.3 | 0.00 | 0.17 | 0.00 | 45 | 1018.3 |
| 20260507171547 | 52 | 240 | 7.0 | 11.3 | 0.00 | 0.17 | 0.00 | 47 | 1018.4 |
| 20260507171032 | 52 | 244 | 7.0 | 11.3 | 0.00 | 0.17 | 0.00 | 45 | 1018.4 |
| 20260507170537 | 52 | 246 | 6.1 | 11.3 | 0.00 | 0.17 | 0.00 | 45 | 1018.5 |
| 20260507170054 | 52 | 232 | 7.8 | 11.3 | 0.00 | 0.17 | 0.00 | 43 | 1018.5 |
| 20260507165538 | 52 | 224 | 8.7 | 11.3 | 0.00 | 0.17 | 0.00 | 42 | 1018.5 |
| 20260507165034 | 51 | 207 | 5.2 | 8.7 | 0.00 | 0.17 | 0.00 | 44 | 1018.7 |
| 20260507164544 | 51 | 234 | 5.2 | 9.6 | 0.00 | 0.17 | 0.00 | 44 | 1018.7 |
| 20260507164031 | 51 | 228 | 7.0 | 9.6 | 0.00 | 0.17 | 0.00 | 45 | 1018.7 |
| 20260507163532 | 51 | 225 | 6.1 | 9.6 | 0.00 | 0.17 | 0.00 | 46 | 1018.9 |
| 20260507163052 | 50 | 210 | 3.5 | 7.8 | 0.00 | 0.17 | 0.00 | 47 | 1018.9 |
| 20260507162534 | 50 | 229 | 3.5 | 7.8 | 0.00 | 0.17 | 0.00 | 48 | 1018.9 |
| 20260507162035 | 49 | 221 | 5.2 | 8.7 | 0.00 | 0.17 | 0.00 | 52 | 1018.9 |
| 20260507161548 | 48 | 220 | 6.1 | 9.6 | 0.00 | 0.17 | 0.00 | 52 | 1018.9 |
| 20260507161032 | 48 | 217 | 7.0 | 9.6 | 0.00 | 0.17 | 0.00 | 52 | 1019.0 |
| 20260507160532 | 47 | 217 | 7.0 | 9.6 | 0.00 | 0.17 | 0.00 | 54 | 1019.1 |
| 20260507160047 | 47 | 201 | 7.0 | 9.6 | 0.00 | 0.17 | 0.00 | 53 | 1019.1 |
| 20260507155533 | 47 | 211 | 7.0 | 9.6 | 0.00 | 0.18 | 0.00 | 53 | 1019.1 |
| 20260507155031 | 47 | 220 | 6.1 | 9.6 | 0.00 | 0.18 | 0.00 | 52 | 1019.1 |
| 20260507154548 | 47 | 220 | 6.1 | 9.6 | 0.00 | 0.18 | 0.00 | 51 | 1019.1 |
| 20260507154032 | 46 | 222 | 6.1 | 9.6 | 0.00 | 0.18 | 0.00 | 52 | 1019.1 |
| 20260507153534 | 46 | 224 | 5.2 | 8.7 | 0.00 | 0.18 | 0.00 | 52 | 1019.1 |
| 20260507153046 | 46 | 224 | 5.2 | 9.6 | 0.00 | 0.18 | 0.00 | 55 | 1019.0 |
| 20260507152533 | 45 | 217 | 7.0 | 9.6 | 0.00 | 0.18 | 0.00 | 55 | 1019.0 |
| 20260507152031 | 45 | 219 | 6.1 | 8.7 | 0.00 | 0.18 | 0.00 | 56 | 1018.9 |
| 20260507151546 | 44 | 210 | 6.1 | 10.4 | 0.00 | 0.18 | 0.00 | 56 | 1018.9 |
| 20260507151034 | 44 | 214 | 7.0 | 10.4 | 0.00 | 0.18 | 0.00 | 56 | 1018.9 |
| 20260507150533 | 44 | 232 | 5.2 | 8.7 | 0.00 | 0.18 | 0.00 | 57 | 1019.1 |
| 20260507150051 | 43 | 223 | 6.1 | 9.6 | 0.00 | 0.18 | 0.00 | 57 | 1019.0 |
| 20260507145534 | 43 | 217 | 7.0 | 9.6 | 0.00 | 0.18 | 0.00 | 57 | 1018.9 |
| 20260507145033 | 43 | 221 | 6.1 | 8.7 | 0.00 | 0.18 | 0.00 | 57 | 1018.9 |
| 20260507144549 | 43 | 218 | 5.2 | 7.8 | 0.00 | 0.18 | 0.00 | 56 | 1018.9 |
| 20260507144036 | 42 | 227 | 4.3 | 7.8 | 0.00 | 0.18 | 0.00 | 56 | 1019.0 |
| 20260507143533 | 42 | 207 | 5.2 | 8.7 | 0.00 | 0.18 | 0.00 | 58 | 1019.0 |
| 20260507143048 | 41 | 221 | 7.0 | 8.7 | 0.00 | 0.18 | 0.00 | 58 | 1019.0 |
| 20260507142534 | 41 | 222 | 6.1 | 9.6 | 0.00 | 0.18 | 0.00 | 58 | 1018.9 |
| 20260507142033 | 41 | 223 | 6.1 | 9.6 | 0.00 | 0.18 | 0.00 | 58 | 1019.0 |
| 20260507141546 | 40 | 219 | 6.1 | 8.7 | 0.00 | 0.18 | 0.00 | 58 | 1019.0 |
| 20260507141033 | 40 | 217 | 6.1 | 8.7 | 0.00 | 0.18 | 0.00 | 58 | 1019.0 |
| 20260507140533 | 39 | 219 | 6.1 | 7.8 | 0.00 | 0.18 | 0.00 | 58 | 1018.9 |
| 20260507140107 | 39 | 218 | 6.1 | 8.7 | 0.00 | 0.18 | 0.00 | 57 | 1019.0 |
| 20260507135532 | 39 | 204 | 6.1 | 8.7 | 0.00 | 0.18 | 0.00 | 57 | 1019.0 |
| 20260507135033 | 38 | 199 | 6.1 | 9.6 | 0.00 | 0.18 | 0.00 | 58 | 1018.9 |
| 20260507134544 | 38 | 200 | 7.0 | 9.6 | 0.00 | 0.18 | 0.00 | 58 | 1018.9 |
| 20260507134032 | 38 | 216 | 7.0 | 9.6 | 0.00 | 0.18 | 0.00 | 58 | 1018.8 |
| 20260507133532 | 37 | 212 | 7.0 | 9.6 | 0.00 | 0.18 | 0.00 | 58 | 1018.7 |
| 20260507133051 | 37 | 207 | 7.0 | 9.6 | 0.00 | 0.18 | 0.00 | 58 | 1018.6 |
| 20260507132534 | 37 | 207 | 7.8 | 9.6 | 0.00 | 0.18 | 0.00 | 58 | 1018.6 |
| 20260507132034 | 36 | 204 | 7.0 | 10.4 | 0.00 | 0.18 | 0.00 | 59 | 1018.6 |
| 20260507131548 | 36 | 204 | 7.8 | 10.4 | 0.00 | 0.18 | 0.00 | 58 | 1018.4 |
| 20260507131033 | 35 | 219 | 7.8 | 10.4 | 0.00 | 0.18 | 0.00 | 59 | 1018.5 |
| 20260507130533 | 35 | 213 | 8.7 | 12.2 | 0.00 | 0.18 | 0.00 | 60 | 1018.4 |
| 20260507130047 | 35 | 202 | 7.8 | 12.2 | 0.00 | 0.18 | 0.00 | 60 | 1018.4 |
| 20260507125534 | 35 | 203 | 7.8 | 11.3 | 0.00 | 0.18 | 0.00 | 60 | 1018.3 |
| 20260507125034 | 35 | 232 | 7.8 | 11.3 | 0.00 | 0.18 | 0.00 | 59 | 1018.2 |
| 20260507124547 | 35 | 211 | 7.8 | 12.2 | 0.00 | 0.18 | 0.00 | 59 | 1018.1 |
| 20260507124033 | 34 | 222 | 9.6 | 12.2 | 0.00 | 0.18 | 0.00 | 59 | 1018.0 |
| 20260507123534 | 34 | 201 | 9.6 | 12.2 | 0.00 | 0.18 | 0.00 | 59 | 1017.9 |
| 20260507123046 | 34 | 205 | 9.6 | 12.2 | 0.00 | 0.18 | 0.00 | 58 | 1017.8 |
| 20260507122531 | 34 | 203 | 9.6 | 12.2 | 0.00 | 0.18 | 0.00 | 58 | 1017.7 |
| 20260507122031 | 34 | 217 | 10.4 | 12.2 | 0.00 | 0.18 | 0.00 | 58 | 1017.7 |
| 20260507121545 | 34 | 213 | 10.4 | 12.2 | 0.00 | 0.18 | 0.00 | 59 | 1017.8 |
| 20260507121034 | 34 | 212 | 9.6 | 13.9 | 0.00 | 0.18 | 0.00 | 58 | 1017.8 |
| 20260507120533 | 34 | 205 | 10.4 | 13.0 | 0.00 | 0.18 | 0.00 | 58 | 1017.9 |
| 20260507120050 | 34 | 200 | 9.6 | 13.0 | 0.00 | 0.18 | 0.00 | 58 | 1017.8 |
| 20260507115532 | 33 | 216 | 9.6 | 12.2 | 0.00 | 0.18 | 0.00 | 58 | 1017.8 |
| 20260507115033 | 33 | 196 | 8.7 | 11.3 | 0.00 | 0.18 | 0.00 | 60 | 1017.9 |
| 20260507114548 | 33 | 203 | 8.7 | 12.2 | 0.00 | 0.18 | 0.00 | 60 | 1017.8 |
| 20260507114034 | 33 | 211 | 8.7 | 12.2 | 0.00 | 0.18 | 0.00 | 59 | 1017.7 |
| 20260507113532 | 33 | 205 | 8.7 | 10.4 | 0.00 | 0.18 | 0.00 | 59 | 1017.8 |
| 20260507113048 | 33 | 196 | 7.8 | 12.2 | 0.00 | 0.18 | 0.00 | 58 | 1017.7 |
| 20260507112536 | 34 | 212 | 8.7 | 13.0 | 0.00 | 0.18 | 0.00 | 57 | 1017.8 |
| 20260507112036 | 34 | 219 | 9.6 | 13.0 | 0.00 | 0.18 | 0.00 | 57 | 1017.7 |
| 20260507111548 | 34 | 215 | 9.6 | 12.2 | 0.00 | 0.18 | 0.00 | 57 | 1017.6 |
| 20260507111031 | 33 | 215 | 8.7 | 12.2 | 0.00 | 0.18 | 0.00 | 58 | 1017.7 |
| 20260507110532 | 33 | 210 | 8.7 | 12.2 | 0.00 | 0.18 | 0.00 | 59 | 1017.7 |
| 20260507110051 | 32 | 214 | 8.7 | 12.2 | 0.00 | 0.18 | 0.00 | 60 | 1017.7 |
| 20260507105532 | 32 | 216 | 7.8 | 12.2 | 0.00 | 0.18 | 0.00 | 60 | 1017.8 |
| 20260507105031 | 32 | 206 | 8.7 | 12.2 | 0.00 | 0.18 | 0.00 | 61 | 1017.8 |
| 20260507104556 | 33 | 220 | 8.7 | 12.2 | 0.00 | 0.18 | 0.00 | 60 | 1017.7 |
| 20260507104033 | 33 | 199 | 8.7 | 11.3 | 0.00 | 0.18 | 0.00 | 60 | 1017.8 |
| 20260507103532 | 33 | 211 | 8.7 | 11.3 | 0.00 | 0.18 | 0.00 | 60 | 1017.8 |
| 20260507103049 | 33 | 212 | 8.7 | 11.3 | 0.00 | 0.18 | 0.00 | 60 | 1017.8 |
| 20260507102532 | 32 | 209 | 8.7 | 11.3 | 0.00 | 0.18 | 0.00 | 60 | 1017.9 |
| 20260507102032 | 32 | 201 | 8.7 | 9.6 | 0.00 | 0.18 | 0.00 | 61 | 1017.9 |
| 20260507101601 | 32 | 214 | 7.0 | 8.7 | 0.00 | 0.18 | 0.00 | 62 | 1017.9 |
| 20260507101031 | 32 | 201 | 7.0 | 9.6 | 0.00 | 0.18 | 0.00 | 62 | 1018.0 |
| 20260507100531 | 32 | 209 | 7.0 | 10.4 | 0.00 | 0.18 | 0.00 | 62 | 1017.9 |
| 20260507100048 | 32 | 205 | 7.8 | 10.4 | 0.00 | 0.18 | 0.00 | 63 | 1018.0 |
| 20260507095533 | 32 | 217 | 7.0 | 9.6 | 0.00 | 0.18 | 0.00 | 63 | 1017.9 |
| 20260507095031 | 32 | 196 | 6.1 | 7.8 | 0.00 | 0.18 | 0.00 | 63 | 1018.1 |
| 20260507094556 | 32 | 216 | 6.1 | 10.4 | 0.00 | 0.18 | 0.00 | 63 | 1018.1 |
| 20260507094031 | 32 | 205 | 7.0 | 12.2 | 0.00 | 0.18 | 0.00 | 63 | 1018.0 |
| 20260507093531 | 32 | 190 | 8.7 | 12.2 | 0.00 | 0.18 | 0.00 | 64 | 1018.0 |
| 20260507093046 | 32 | 199 | 8.7 | 13.0 | 0.00 | 0.18 | 0.00 | 64 | 1018.0 |
| 20260507092534 | 31 | 213 | 9.6 | 13.0 | 0.00 | 0.18 | 0.00 | 65 | 1018.0 |
| 20260507092034 | 31 | 207 | 6.1 | 10.4 | 0.00 | 0.18 | 0.00 | 66 | 1018.1 |
| 20260507091602 | 31 | 194 | 7.0 | 10.4 | 0.00 | 0.18 | 0.00 | 67 | 1018.2 |
| 20260507091031 | 31 | 198 | 7.0 | 12.2 | 0.00 | 0.18 | 0.00 | 67 | 1018.2 |
| 20260507090534 | 31 | 200 | 8.7 | 12.2 | 0.00 | 0.18 | 0.00 | 67 | 1018.2 |
| 20260507090107 | 31 | 213 | 7.8 | 11.3 | 0.00 | 0.18 | 0.00 | 69 | 1018.2 |
| 20260507085534 | 30 | 202 | 7.8 | 12.2 | 0.00 | 0.18 | 0.00 | 70 | 1018.2 |
| 20260507085031 | 30 | 212 | 7.8 | 12.2 | 0.00 | 0.18 | 0.00 | 69 | 1018.2 |
| 20260507084547 | 31 | 216 | 7.0 | 10.4 | 0.00 | 0.18 | 0.00 | 68 | 1018.3 |
| 20260507084033 | 31 | 202 | 6.1 | 8.7 | 0.00 | 0.18 | 0.00 | 67 | 1018.3 |
| 20260507083537 | 31 | 194 | 6.1 | 8.7 | 0.00 | 0.18 | 0.00 | 68 | 1018.3 |
| 20260507083048 | 30 | 198 | 5.2 | 8.7 | 0.00 | 0.18 | 0.00 | 69 | 1018.3 |
| 20260507082533 | 31 | 182 | 6.1 | 8.7 | 0.00 | 0.18 | 0.00 | 69 | 1018.3 |
| 20260507082030 | 30 | 198 | 6.1 | 8.7 | 0.00 | 0.18 | 0.00 | 70 | 1018.3 |
| 20260507081557 | 30 | 194 | 6.1 | 8.7 | 0.00 | 0.18 | 0.00 | 72 | 1018.3 |
| 20260507081031 | 30 | 198 | 5.2 | 7.8 | 0.00 | 0.18 | 0.00 | 73 | 1018.4 |
| 20260507080531 | 29 | 211 | 5.2 | 7.0 | 0.00 | 0.18 | 0.00 | 74 | 1018.4 |
| 20260507080044 | 29 | 205 | 5.2 | 7.0 | 0.00 | 0.18 | 0.00 | 75 | 1018.5 |
| 20260507075531 | 29 | 205 | 5.2 | 7.8 | 0.00 | 0.18 | 0.00 | 76 | 1018.5 |
| 20260507075033 | 29 | 205 | 5.2 | 8.7 | 0.00 | 0.18 | 0.00 | 77 | 1018.6 |
| 20260507074552 | 29 | 209 | 6.1 | 9.6 | 0.00 | 0.18 | 0.00 | 78 | 1018.6 |
| 20260507074033 | 29 | 210 | 7.0 | 9.6 | 0.00 | 0.18 | 0.00 | 79 | 1018.7 |
| 20260507073531 | 29 | 208 | 6.1 | 7.8 | 0.00 | 0.18 | 0.00 | 78 | 1018.8 |
| 20260507073059 | 29 | 215 | 6.1 | 8.7 | 0.00 | 0.18 | 0.00 | 78 | 1018.8 |
| 20260507072534 | 29 | 208 | 6.1 | 8.7 | 0.00 | 0.18 | 0.00 | 78 | 1018.9 |
| 20260507072034 | 29 | 202 | 7.0 | 10.4 | 0.00 | 0.18 | 0.00 | 79 | 1018.9 |
| 20260507071548 | 29 | 205 | 7.0 | 10.4 | 0.00 | 0.18 | 0.00 | 78 | 1018.9 |
| 20260507071034 | 30 | 225 | 7.0 | 9.6 | 0.00 | 0.18 | 0.00 | 78 | 1018.9 |
| 20260507070534 | 30 | 212 | 6.1 | 11.3 | 0.00 | 0.18 | 0.00 | 78 | 1018.9 |
| 20260507070135 | 30 | 209 | 7.8 | 11.3 | 0.00 | 0.18 | 0.00 | 78 | 1019.0 |
| 20260507065534 | 30 | 204 | 7.8 | 10.4 | 0.00 | 0.18 | 0.00 | 78 | 1019.0 |
| 20260507065033 | 30 | 200 | 7.0 | 9.6 | 0.00 | 0.18 | 0.00 | 79 | 1019.1 |
| 20260507064551 | 30 | 211 | 7.0 | 9.6 | 0.00 | 0.18 | 0.00 | 79 | 1019.1 |
| 20260507064034 | 30 | 212 | 6.1 | 9.6 | 0.00 | 0.18 | 0.00 | 80 | 1019.1 |
| 20260507063532 | 30 | 204 | 7.0 | 9.6 | 0.00 | 0.18 | 0.00 | 80 | 1019.1 |
| 20260507063047 | 30 | 207 | 7.0 | 9.6 | 0.00 | 0.18 | 0.00 | 80 | 1019.0 |
| 20260507062530 | 30 | 203 | 7.0 | 10.4 | 0.00 | 0.18 | 0.00 | 81 | 1019.0 |
| 20260507062030 | 30 | 197 | 7.0 | 10.4 | 0.00 | 0.18 | 0.00 | 81 | 1019.0 |
| 20260507061547 | 30 | 222 | 7.8 | 10.4 | 0.00 | 0.18 | 0.00 | 81 | 1019.1 |
| 20260507061030 | 30 | 191 | 7.0 | 10.4 | 0.00 | 0.18 | 0.00 | 81 | 1019.1 |
| 20260507060531 | 30 | 205 | 7.8 | 10.4 | 0.00 | 0.18 | 0.00 | 82 | 1019.1 |
| 20260507060047 | 30 | 211 | 7.0 | 10.4 | 0.00 | 0.18 | 0.00 | 82 | 1019.1 |
| 20260507055530 | 30 | 205 | 7.0 | 10.4 | 0.00 | 0.18 | 0.18 | 82 | 1019.3 |
| 20260507055033 | 30 | 188 | 7.0 | 11.3 | 0.00 | 0.18 | 0.18 | 82 | 1019.1 |
| 20260507054550 | 30 | 211 | 7.8 | 13.0 | 0.00 | 0.18 | 0.18 | 82 | 1019.1 |
| 20260507054032 | 30 | 202 | 7.8 | 13.0 | 0.00 | 0.18 | 0.18 | 82 | 1019.1 |
| 20260507053533 | 31 | 200 | 7.8 | 11.3 | 0.00 | 0.18 | 0.18 | 82 | 1019.1 |
| 20260507053044 | 31 | 197 | 7.8 | 13.0 | 0.00 | 0.18 | 0.18 | 82 | 1019.1 |
| 20260507052533 | 31 | 206 | 7.8 | 13.0 | 0.00 | 0.18 | 0.18 | 82 | 1019.0 |
| 20260507052031 | 31 | 213 | 8.7 | 12.2 | 0.00 | 0.18 | 0.18 | 82 | 1018.9 |
| 20260507051549 | 31 | 201 | 7.8 | 10.4 | 0.00 | 0.18 | 0.18 | 83 | 1018.9 |
| 20260507051033 | 30 | 194 | 8.7 | 10.4 | 0.00 | 0.18 | 0.18 | 84 | 1018.9 |
| 20260507050533 | 30 | 186 | 7.0 | 10.4 | 0.00 | 0.18 | 0.18 | 84 | 1019.1 |
| 20260507050048 | 30 | 197 | 7.0 | 10.4 | 0.00 | 0.18 | 0.18 | 84 | 1019.1 |
| 20260507045534 | 30 | 202 | 7.8 | 9.6 | 0.00 | 0.18 | 0.18 | 84 | 1019.1 |
| 20260507045037 | 30 | 188 | 7.0 | 9.6 | 0.00 | 0.18 | 0.18 | 84 | 1019.2 |
| 20260507044549 | 30 | 203 | 7.0 | 9.6 | 0.00 | 0.18 | 0.18 | 84 | 1019.1 |
| 20260507044032 | 30 | 202 | 6.1 | 10.4 | 0.00 | 0.18 | 0.18 | 84 | 1019.1 |
| 20260507043531 | 30 | 206 | 7.8 | 10.4 | 0.00 | 0.18 | 0.18 | 84 | 1019.1 |
| 20260507043043 | 30 | 190 | 7.0 | 10.4 | 0.00 | 0.18 | 0.18 | 85 | 1018.9 |
| 20260507042530 | 30 | 188 | 7.0 | 10.4 | 0.00 | 0.18 | 0.18 | 84 | 1019.0 |
| 20260507042031 | 30 | 194 | 7.8 | 12.2 | 0.00 | 0.18 | 0.18 | 85 | 1018.7 |
| 20260507041549 | 30 | 183 | 8.7 | 13.0 | 0.00 | 0.18 | 0.18 | 84 | 1018.8 |
| 20260507041033 | 30 | 173 | 9.6 | 13.0 | 0.00 | 0.18 | 0.18 | 85 | 1018.9 |
| 20260507040531 | 30 | 179 | 10.4 | 14.8 | 0.00 | 0.18 | 0.18 | 84 | 1018.8 |
| 20260507040051 | 31 | 188 | 10.4 | 14.8 | 0.00 | 0.18 | 0.18 | 84 | 1018.9 |
| 20260507035533 | 30 | 183 | 10.4 | 13.9 | 0.00 | 0.18 | 0.18 | 84 | 1018.9 |
| 20260507035034 | 30 | 180 | 9.6 | 13.9 | 0.00 | 0.18 | 0.18 | 83 | 1018.9 |
| 20260507034549 | 30 | 180 | 9.6 | 13.9 | 0.00 | 0.18 | 0.18 | 83 | 1018.9 |
| 20260507034033 | 30 | 180 | 10.4 | 13.9 | 0.00 | 0.18 | 0.18 | 83 | 1018.9 |
| 20260507033537 | 30 | 179 | 10.4 | 13.0 | 0.00 | 0.18 | 0.18 | 83 | 1018.8 |
| 20260507033048 | 31 | 173 | 10.4 | 13.0 | 0.00 | 0.18 | 0.18 | 83 | 1018.8 |
| 20260507032534 | 31 | 185 | 8.7 | 12.2 | 0.00 | 0.18 | 0.18 | 83 | 1018.9 |
| 20260507032033 | 31 | 187 | 9.6 | 11.3 | 0.00 | 0.18 | 0.18 | 83 | 1018.8 |
| 20260507031544 | 31 | 196 | 8.7 | 10.4 | 0.00 | 0.18 | 0.18 | 84 | 1018.7 |
| 20260507031034 | 30 | 175 | 7.8 | 10.4 | 0.00 | 0.18 | 0.18 | 84 | 1018.7 |
| 20260507030531 | 30 | 179 | 8.7 | 10.4 | 0.00 | 0.18 | 0.18 | 84 | 1018.6 |
| 20260507030056 | 30 | 178 | 7.0 | 9.6 | 0.00 | 0.18 | 0.18 | 85 | 1018.6 |
| 20260507025532 | 30 | 157 | 6.1 | 8.7 | 0.00 | 0.18 | 0.18 | 84 | 1018.6 |
| 20260507025035 | 30 | 153 | 7.0 | 7.8 | 0.00 | 0.18 | 0.18 | 83 | 1018.6 |
| 20260507024548 | 31 | 155 | 6.1 | 7.8 | 0.00 | 0.18 | 0.18 | 82 | 1018.7 |
| 20260507024035 | 31 | 155 | 6.1 | 9.6 | 0.00 | 0.18 | 0.18 | 81 | 1018.6 |
| 20260507023537 | 32 | 163 | 7.0 | 10.4 | 0.00 | 0.18 | 0.18 | 81 | 1018.6 |
| 20260507023048 | 32 | 163 | 8.7 | 10.4 | 0.00 | 0.18 | 0.18 | 81 | 1018.6 |
| 20260507022532 | 32 | 171 | 7.8 | 9.6 | 0.00 | 0.18 | 0.18 | 81 | 1018.6 |
| 20260507022032 | 32 | 167 | 7.0 | 9.6 | 0.00 | 0.18 | 0.18 | 81 | 1018.6 |
| 20260507021602 | 32 | 163 | 7.0 | 9.6 | 0.00 | 0.18 | 0.18 | 81 | 1018.5 |
| 20260507021030 | 32 | 158 | 7.0 | 8.7 | 0.00 | 0.18 | 0.18 | 82 | 1018.5 |
| 20260507020532 | 32 | 161 | 6.1 | 7.8 | 0.00 | 0.18 | 0.18 | 81 | 1018.6 |
| 20260507020056 | 31 | 158 | 5.2 | 7.8 | 0.00 | 0.18 | 0.18 | 81 | 1018.5 |
| 20260507015531 | 32 | 158 | 4.3 | 5.2 | 0.00 | 0.18 | 0.18 | 80 | 1018.5 |
| 20260507015031 | 32 | 182 | 3.5 | 4.3 | 0.00 | 0.18 | 0.18 | 79 | 1018.5 |
| 20260507014609 | 32 | 155 | 1.7 | 5.2 | 0.00 | 0.18 | 0.18 | 79 | 1018.5 |
| 20260507014030 | 32 | 157 | 2.6 | 5.2 | 0.00 | 0.18 | 0.18 | 79 | 1018.5 |
| 20260507013531 | 32 | 160 | 2.6 | 2.6 | 0.00 | 0.18 | 0.18 | 78 | 1018.5 |
| 20260507013056 | 33 | 155 | 1.7 | 2.6 | 0.00 | 0.18 | 0.18 | 78 | 1018.6 |
| 20260507012531 | 33 | 155 | 1.7 | 2.6 | 0.00 | 0.18 | 0.18 | 78 | 1018.6 |
| 20260507012034 | 33 | 155 | 1.7 | 2.6 | 0.00 | 0.18 | 0.18 | 78 | 1018.6 |
| 20260507011548 | 33 | 155 | 2.6 | 2.6 | 0.00 | 0.18 | 0.18 | 78 | 1018.5 |
| 20260507011030 | 33 | 155 | 1.7 | 2.6 | 0.00 | 0.18 | 0.18 | 77 | 1018.5 |
| 20260507010533 | 33 | 155 | 1.7 | 2.6 | 0.00 | 0.18 | 0.18 | 77 | 1018.4 |
| 20260507010100 | 33 | 155 | 1.7 | 2.6 | 0.00 | 0.18 | 0.18 | 77 | 1018.5 |
| 20260507005531 | 33 | 155 | 0.9 | 2.6 | 0.00 | 0.18 | 0.18 | 77 | 1018.6 |
| 20260507005033 | 33 | 155 | 0.9 | 3.5 | 0.00 | 0.18 | 0.18 | 76 | 1018.5 |
| 20260507004547 | 33 | 155 | 1.7 | 3.5 | 0.00 | 0.18 | 0.18 | 76 | 1018.5 |
| 20260507004030 | 33 | 155 | 2.6 | 3.5 | 0.00 | 0.18 | 0.18 | 76 | 1018.5 |
| 20260507003531 | 33 | 152 | 2.6 | 3.5 | 0.00 | 0.18 | 0.18 | 76 | 1018.5 |
| 20260507003041 | 33 | 150 | 2.6 | 4.3 | 0.00 | 0.18 | 0.18 | 75 | 1018.5 |
| 20260507002532 | 33 | 147 | 3.5 | 3.5 | 0.00 | 0.18 | 0.18 | 75 | 1018.5 |
| 20260507002033 | 33 | 144 | 2.6 | 4.3 | 0.00 | 0.18 | 0.18 | 74 | 1018.5 |
| 20260507001552 | 33 | 150 | 3.5 | 5.2 | 0.00 | 0.18 | 0.18 | 74 | 1018.5 |
| 20260507001030 | 33 | 151 | 3.5 | 7.0 | 0.00 | 0.18 | 0.18 | 75 | 1018.5 |
| 20260507000531 | 32 | 173 | 3.5 | 7.0 | 0.00 | 0.18 | 0.18 | 73 | 1018.6 |
| 20260507000048 | 32 | 170 | 4.3 | 7.0 | 0.00 | 0.18 | 0.18 | 73 | 1018.6 |
| 20260506235531 | 33 | 157 | 4.3 | 6.1 | 0.00 | 0.19 | 0.18 | 74 | 1018.5 |
| 20260506235030 | 33 | 137 | 2.6 | 5.2 | 0.00 | 0.19 | 0.18 | 74 | 1018.6 |
| 20260506234547 | 33 | 153 | 3.5 | 5.2 | 0.00 | 0.19 | 0.18 | 73 | 1018.6 |
| 20260506234034 | 33 | 128 | 2.6 | 3.5 | 0.00 | 0.19 | 0.18 | 74 | 1018.7 |
| 20260506233532 | 33 | 144 | 2.6 | 3.5 | 0.00 | 0.19 | 0.18 | 75 | 1018.7 |
| 20260506233049 | 33 | 110 | 2.6 | 3.5 | 0.00 | 0.19 | 0.18 | 75 | 1018.7 |
| 20260506232534 | 33 | 141 | 1.7 | 3.5 | 0.00 | 0.19 | 0.18 | 73 | 1018.7 |
| 20260506232030 | 33 | 136 | 1.7 | 2.6 | 0.00 | 0.19 | 0.18 | 73 | 1018.6 |
| 20260506231546 | 33 | 135 | 1.7 | 3.5 | 0.00 | 0.19 | 0.18 | 73 | 1018.8 |
| 20260506231035 | 33 | 135 | 2.6 | 5.2 | 0.00 | 0.19 | 0.18 | 73 | 1018.7 |
| 20260506230531 | 34 | 117 | 2.6 | 5.2 | 0.00 | 0.19 | 0.18 | 72 | 1018.7 |
| 20260506225531 | 34 | 205 | 0.9 | 3.5 | 0.00 | 0.19 | 0.18 | 72 | 1018.9 |
| 20260506225035 | 34 | 205 | 1.7 | 3.5 | 0.00 | 0.19 | 0.18 | 72 | 1018.8 |
| 20260506224542 | 34 | 161 | 0.0 | 2.6 | 0.00 | 0.19 | 0.18 | 74 | 1018.7 |
| 20260506224032 | 33 | 179 | 0.9 | 3.5 | 0.00 | 0.19 | 0.18 | 74 | 1018.8 |
| 20260506223531 | 32 | 123 | 2.6 | 4.3 | 0.00 | 0.19 | 0.18 | 77 | 1018.7 |
| 20260506223047 | 32 | 144 | 2.6 | 4.3 | 0.00 | 0.19 | 0.18 | 76 | 1018.9 |
| 20260506222534 | 32 | 200 | 2.6 | 5.2 | 0.00 | 0.19 | 0.18 | 77 | 1018.9 |
| 20260506222033 | 32 | 148 | 2.6 | 5.2 | 0.00 | 0.19 | 0.18 | 78 | 1019.0 |
| 20260506221548 | 32 | 169 | 2.6 | 4.3 | 0.00 | 0.19 | 0.18 | 77 | 1019.0 |
| 20260506221034 | 32 | 236 | 2.6 | 5.2 | 0.00 | 0.19 | 0.18 | 76 | 1019.0 |
| 20260506220533 | 32 | 211 | 3.5 | 5.2 | 0.00 | 0.19 | 0.18 | 75 | 1019.0 |
| 20260506220051 | 33 | 170 | 2.6 | 5.2 | 0.00 | 0.19 | 0.18 | 77 | 1019.1 |
| 20260506215534 | 32 | 210 | 0.9 | 5.2 | 0.00 | 0.19 | 0.18 | 80 | 1019.0 |
| 20260506215034 | 32 | 113 | 2.6 | 5.2 | 0.00 | 0.19 | 0.18 | 80 | 1019.1 |
| 20260506214547 | 33 | 117 | 2.6 | 3.5 | 0.00 | 0.19 | 0.18 | 79 | 1019.2 |
| 20260506214033 | 34 | 160 | 1.7 | 3.5 | 0.00 | 0.19 | 0.18 | 77 | 1019.3 |
| 20260506213535 | 34 | 213 | 0.0 | 0.9 | 0.00 | 0.19 | 0.18 | 80 | 1019.4 |
| 20260506213042 | 34 | 0 | 0.0 | 1.7 | 0.00 | 0.19 | 0.18 | 81 | 1019.4 |
| 20260506212533 | 33 | 0 | 0.0 | 1.7 | 0.00 | 0.19 | 0.18 | 80 | 1019.5 |
| 20260506212031 | 33 | 109 | 0.9 | 1.7 | 0.00 | 0.19 | 0.18 | 79 | 1019.4 |
| 20260506211547 | 34 | 109 | 0.9 | 1.7 | 0.00 | 0.19 | 0.18 | 81 | 1019.4 |
| 20260506211034 | 33 | 0 | 0.0 | 3.5 | 0.00 | 0.19 | 0.18 | 83 | 1019.4 |
| 20260506210537 | 33 | 87 | 0.9 | 3.5 | 0.00 | 0.19 | 0.18 | 84 | 1019.3 |
| 20260506210051 | 33 | 69 | 1.7 | 3.5 | 0.00 | 0.19 | 0.18 | 83 | 1019.3 |
| 20260506205533 | 32 | 99 | 1.7 | 3.5 | 0.00 | 0.21 | 0.18 | 82 | 1019.3 |
| 20260506205030 | 32 | 69 | 1.7 | 4.3 | 0.01 | 0.21 | 0.18 | 83 | 1019.4 |
| 20260506204547 | 32 | 34 | 1.7 | 4.3 | 0.01 | 0.21 | 0.18 | 84 | 1019.5 |
| 20260506204033 | 31 | 63 | 2.6 | 4.3 | 0.01 | 0.21 | 0.18 | 84 | 1019.6 |
| 20260506203533 | 32 | 86 | 2.6 | 6.1 | 0.02 | 0.21 | 0.18 | 83 | 1019.7 |
| 20260506203053 | 31 | 63 | 2.6 | 6.1 | 0.02 | 0.21 | 0.18 | 84 | 1019.7 |
| 20260506202533 | 31 | 75 | 3.5 | 6.1 | 0.03 | 0.21 | 0.18 | 84 | 1019.7 |
| 20260506202033 | 31 | 86 | 3.5 | 7.0 | 0.03 | 0.21 | 0.18 | 85 | 1019.8 |
| 20260506201610 | 31 | 65 | 3.5 | 7.0 | 0.03 | 0.21 | 0.18 | 85 | 1019.9 |
| 20260506201037 | 31 | 84 | 4.3 | 7.0 | 0.04 | 0.21 | 0.18 | 84 | 1019.8 |
| 20260506200533 | 31 | 36 | 4.3 | 7.8 | 0.05 | 0.21 | 0.18 | 86 | 1019.7 |
| 20260506200052 | 31 | 45 | 5.2 | 7.8 | 0.05 | 0.21 | 0.18 | 86 | 1019.7 |
| 20260506195531 | 31 | 81 | 4.3 | 7.8 | 0.06 | 0.25 | 0.18 | 86 | 1019.7 |
| 20260506195032 | 31 | 34 | 4.3 | 8.7 | 0.06 | 0.24 | 0.17 | 87 | 1019.7 |
| 20260506194552 | 30 | 68 | 5.2 | 10.4 | 0.07 | 0.24 | 0.17 | 87 | 1019.7 |
| 20260506194030 | 30 | 44 | 5.2 | 10.4 | 0.08 | 0.24 | 0.17 | 87 | 1019.8 |